DELTA 1 DEB, 9976

Orbit data source: Space-Track

DELTA 1 DEB, 9976 is space debris in SSO originally from a launch on Tue, 06 Nov 1973 UTC launched from the Air Force Western Test Range (AFWTR). Debris objects in space refer to the collection of defunct objects orbiting the Earth. Examples of debris include non-operational satellites, rocket bodies, and fragments generated from explosions, collisions, or faulty payload assembly.

Loading next visibility...
Identifier
9976, 1973-086GF
Orbit
SSO
Country
Flag of USUS
Related business
Manufacturer
Unknown
Mission
Spacecraft
Bus & Motor
Unknown
Mass
Unknown
Launch date (UTC)
1973-11-06 (53 years ago)
Launch vehicle
Unknown
Launch site
Air Force Western Test Range (AFWTR)
Object type
Payload
Rocket body
Debris
Shape & HBR
Unknown shape, 0.1 m
Radar Cross Section
Medium (>0.1 m² and <1 m²)

Expand to show TLE details & history
Last TLE update: 10 hours ago

TLE from 10 hours ago
0 DELTA 1 DEB
1 09976U 73086GF  26255.28257155  .00000022  00000-0  53562-3 0  9998
2 09976 102.3589 278.0333 0044749  75.8106 349.4158 12.35481329307004
Epoch: 2026-09-12T06:46Z
TLE epoch observation values (Epoch: 2026-09-12T06:46:54.181Z)
Latitude
62.49463°
Longitude
160.25775°
Altitude
1,501.565 km
Speed
7.135 km/s
True Right ascension
16h 53m 06s
True Declination
62° 22' 01"
Sunlit
Object was in daylight at epoch
Visualization orbit readout
Latitude
Unknown
Longitude
Unknown
Altitude
Unknown
Speed
Unknown
Apparent Right ascension
Unknown
Apparent Declination
Unknown
Sunlit
N/A
Visualization observer readout
Local Sidereal Time
09:08:18
Azimuth
Unknown
Elevation
Unknown
Doppler factor
Unknown
Orbital elements
Apogee altitude
1,558.777 km
Perigee altitude
1,488.06 km
Semi-major axis
7,901.556 km
Eccentricity
0.00447
Inclination
102.3589°
RAAN
278.0333°
Arg. of periapsis
75.8106°
True anomaly
349.32109°
Mean anomaly
349.4158°
Eccentric anomaly
349.3685°
Mean motion
3.09011 °/min
Orbital period
116.5 mins
BSTAR
0.00053562
Loading maneuver chart data...
Computing Atmospheric mass density...
Loading historical data...
Loading historical data...
Loading historical data...
Loading historical data...
Loading historical data...
Loading historical data...
Loading historical data...

Documentation

Showing up to 5 results
|